Location: Ahstedt
(52.2048°N, 10.1060°E)
Time: 22:21:36
(UTC+00:00)

Cosmos 2082 Rocket - Pass Details

Date: 16 April 2026
Orbit: 831 x 853 km, 71.0° (Epoch: 19 May)

Event Time Altitude Azimuth Distance (km) Brightness Sun altitude
Exits shadow 00:45:48 25° 130° (SE) 1,669 3.6 -25.0°
Maximum altitude 00:47:19 28° 104° (ESE) 1,552 3.6 -24.9°
Drops below altitude 10° 00:52:05 10° 48° (NE) 2,493 5.5 -24.6°
Sets 00:54:51 0° 37° (NE) 3,434 6.7 -24.4°
